OAS8525 SKBQ-SKBO

Flight info

Callsign OAS8525
Flight time 1h 2m
Altitude 35000
Route NINLO3A LOKOV UG444 EJA/N0458F360 UQ119 ILSEV ILSEV5E
Aircraft B38M/M-SDE1FGHILORVWXY/HB1

Departure

Time 2026-04-19 03:55
Airport Ernesto Cortissoz International Airport (SKBQ)

Arrival

Time 2026-04-19 04:57
Airport El Dorado International Airport (SKBO)
Time Latitude Longitude Altitude Speed Heading
2026-04-19 03:36 10.88636 -74.77766 99 ft 0 kts 130°
2026-04-19 03:40 10.88637 -74.77767 99 ft 1 kts 130°
2026-04-19 03:40 10.88655 -74.77783 99 ft 4 kts 155°
2026-04-19 03:41 10.88680 -74.77788 98 ft 4 kts 188°
2026-04-19 03:41 10.88700 -74.77779 99 ft 1 kts 220°
2026-04-19 03:41 10.88687 -74.77791 98 ft 4 kts 220°
2026-04-19 03:41 10.88670 -74.77805 99 ft 0 kts 220°
2026-04-19 03:44 10.88657 -74.77816 100 ft 5 kts 220°
2026-04-19 03:44 10.88614 -74.77853 99 ft 11 kts 220°
2026-04-19 03:44 10.88567 -74.77914 99 ft 12 kts 274°
2026-04-19 03:44 10.88560 -74.77975 99 ft 7 kts 232°
2026-04-19 03:45 10.88514 -74.78017 101 ft 11 kts 220°
2026-04-19 03:45 10.88442 -74.78082 101 ft 16 kts 233°
2026-04-19 03:45 10.88431 -74.78208 102 ft 21 kts 278°
2026-04-19 03:45 10.88389 -74.78329 101 ft 18 kts 221°
2026-04-19 03:46 10.88286 -74.78417 103 ft 21 kts 220°
2026-04-19 03:46 10.88169 -74.78518 105 ft 23 kts 220°
2026-04-19 03:46 10.88036 -74.78631 108 ft 27 kts 220°
2026-04-19 03:46 10.87919 -74.78761 110 ft 23 kts 262°
2026-04-19 03:47 10.87909 -74.78845 111 ft 0 kts 265°
2026-04-19 03:50 10.87908 -74.78862 112 ft 4 kts 265°
2026-04-19 03:50 10.87904 -74.78910 113 ft 9 kts 270°
2026-04-19 03:50 10.87949 -74.78956 112 ft 13 kts 21°
2026-04-19 03:50 10.88066 -74.78858 110 ft 46 kts 39°
2026-04-19 03:51 10.88407 -74.78571 105 ft 12 kts 44°
2026-04-19 03:51 10.88409 -74.78569 105 ft 0 kts 44°
2026-04-19 03:51 10.88432 -74.78546 105 ft 9 kts 44°
2026-04-19 03:51 10.88494 -74.78485 104 ft 16 kts 44°
2026-04-19 03:52 10.88576 -74.78402 103 ft 8 kts 72°
2026-04-19 03:52 10.88522 -74.78368 101 ft 13 kts 169°
2026-04-19 03:52 10.88451 -74.78316 101 ft 13 kts 115°
2026-04-19 03:52 10.88409 -74.78310 101 ft 8 kts 223°
2026-04-19 03:53 10.88361 -74.78355 102 ft 12 kts 220°
2026-04-19 03:53 10.88285 -74.78422 103 ft 17 kts 219°
2026-04-19 03:53 10.88180 -74.78509 105 ft 22 kts 219°
2026-04-19 03:53 10.88050 -74.78619 108 ft 26 kts 220°
2026-04-19 03:54 10.87923 -74.78738 111 ft 20 kts 248°
2026-04-19 03:54 10.87906 -74.78883 113 ft 21 kts 266°
2026-04-19 03:54 10.87951 -74.78961 112 ft 9 kts 19°
2026-04-19 03:54 10.88052 -74.78871 110 ft 45 kts 40°
2026-04-19 03:55 10.88493 -74.78496 104 ft 119 kts 40°
2026-04-19 03:55 10.89289 -74.77815 157 ft 172 kts 38°
2026-04-19 03:55 10.90220 -74.77030 917 ft 170 kts 39°
2026-04-19 03:55 10.91111 -74.76252 1770 ft 172 kts 40°
2026-04-19 03:56 10.92074 -74.75407 2213 ft 193 kts 40°
2026-04-19 03:56 10.93144 -74.74469 2645 ft 213 kts 40°
2026-04-19 03:56 10.94232 -74.73430 3391 ft 216 kts 53°
2026-04-19 03:56 10.94795 -74.72012 4212 ft 222 kts 84°
2026-04-19 03:57 10.94552 -74.70458 5031 ft 227 kts 114°
2026-04-19 03:57 10.93663 -74.69105 5819 ft 234 kts 126°
2026-04-19 03:57 10.92674 -74.67785 6621 ft 235 kts 127°
2026-04-19 03:57 10.91667 -74.66462 7379 ft 240 kts 130°
2026-04-19 03:58 10.90302 -74.65403 7858 ft 258 kts 158°
2026-04-19 03:58 10.88522 -74.64858 8336 ft 277 kts 164°
2026-04-19 03:58 10.86615 -74.64317 8860 ft 292 kts 165°
2026-04-19 03:58 10.84657 -74.63772 9762 ft 292 kts 165°
2026-04-19 03:59 10.82669 -74.63226 10425 ft 302 kts 165°
2026-04-19 03:59 10.80571 -74.62655 10783 ft 321 kts 165°
2026-04-19 03:59 10.78360 -74.62055 11235 ft 335 kts 165°
2026-04-19 03:59 10.76092 -74.61442 11988 ft 337 kts 165°
2026-04-19 04:00 10.73811 -74.60825 12731 ft 341 kts 165°
2026-04-19 04:00 10.71529 -74.60208 13466 ft 345 kts 165°
2026-04-19 04:00 10.69199 -74.59579 14143 ft 348 kts 165°
2026-04-19 04:00 10.66839 -74.58941 14755 ft 353 kts 165°
2026-04-19 04:01 10.64444 -74.58294 15368 ft 358 kts 165°
2026-04-19 04:01 10.59573 -74.56979 16655 ft 362 kts 165°
2026-04-19 04:01 10.57206 -74.56340 17678 ft 351 kts 165°
2026-04-19 04:02 10.54859 -74.55707 18419 ft 352 kts 165°
2026-04-19 04:02 10.52435 -74.55053 18551 ft 369 kts 165°
2026-04-19 04:02 10.49903 -74.54370 18761 ft 382 kts 165°
2026-04-19 04:02 10.47325 -74.53674 19228 ft 384 kts 165°
2026-04-19 04:03 10.44725 -74.52973 19700 ft 388 kts 165°
2026-04-19 04:03 10.42106 -74.52267 20159 ft 391 kts 165°
2026-04-19 04:03 10.39470 -74.51557 20635 ft 394 kts 165°
2026-04-19 04:03 10.36807 -74.50838 21084 ft 397 kts 165°
2026-04-19 04:04 10.34129 -74.50117 21531 ft 400 kts 166°
2026-04-19 04:04 10.31429 -74.49389 21978 ft 403 kts 166°
2026-04-19 04:04 10.28711 -74.48657 22424 ft 406 kts 166°
2026-04-19 04:04 10.25968 -74.47918 22864 ft 409 kts 166°
2026-04-19 04:05 10.23213 -74.47176 23296 ft 412 kts 166°
2026-04-19 04:05 10.20429 -74.46426 23681 ft 415 kts 166°
2026-04-19 04:05 10.17636 -74.45674 24048 ft 417 kts 166°
2026-04-19 04:05 10.14827 -74.44918 24422 ft 419 kts 166°
2026-04-19 04:06 10.12006 -74.44159 24788 ft 421 kts 166°
2026-04-19 04:06 10.09173 -74.43397 25147 ft 423 kts 166°
2026-04-19 04:06 10.06318 -74.42629 25511 ft 425 kts 166°
2026-04-19 04:06 10.03456 -74.41859 25874 ft 427 kts 166°
2026-04-19 04:07 10.00579 -74.41085 26232 ft 429 kts 166°
2026-04-19 04:07 9.97692 -74.40309 26588 ft 431 kts 167°
2026-04-19 04:07 9.94791 -74.39529 26933 ft 433 kts 167°
2026-04-19 04:07 9.91872 -74.38744 27284 ft 434 kts 167°
2026-04-19 04:08 9.88946 -74.37958 27626 ft 436 kts 167°
2026-04-19 04:08 9.86003 -74.37167 27959 ft 438 kts 167°
2026-04-19 04:08 9.83048 -74.36374 28283 ft 440 kts 167°
2026-04-19 04:08 9.80081 -74.35577 28624 ft 442 kts 167°
2026-04-19 04:09 9.77100 -74.34776 28949 ft 444 kts 167°
2026-04-19 04:09 9.74106 -74.33972 29261 ft 446 kts 167°
2026-04-19 04:09 9.71102 -74.33166 29575 ft 448 kts 167°
2026-04-19 04:09 9.68085 -74.32356 29877 ft 450 kts 167°
2026-04-19 04:10 9.65050 -74.31542 30151 ft 452 kts 167°
2026-04-19 04:10 9.62011 -74.30727 30414 ft 453 kts 167°
2026-04-19 04:10 9.58958 -74.29908 30677 ft 454 kts 167°
2026-04-19 04:10 9.55900 -74.29088 30944 ft 455 kts 167°
2026-04-19 04:11 9.52830 -74.28265 31201 ft 457 kts 167°
2026-04-19 04:11 9.49756 -74.27441 31460 ft 458 kts 167°
2026-04-19 04:11 9.46671 -74.26614 31714 ft 459 kts 167°
2026-04-19 04:11 9.43579 -74.25785 31963 ft 461 kts 167°
2026-04-19 04:12 9.40474 -74.24953 32213 ft 462 kts 168°
2026-04-19 04:12 9.37363 -74.24120 32465 ft 463 kts 168°
2026-04-19 04:12 9.34250 -74.23286 32705 ft 464 kts 168°
2026-04-19 04:12 9.31119 -74.22448 32966 ft 465 kts 168°
2026-04-19 04:13 9.28000 -74.21612 33285 ft 464 kts 168°
2026-04-19 04:13 9.24871 -74.20775 33631 ft 463 kts 168°
2026-04-19 04:13 9.21805 -74.19954 33966 ft 461 kts 168°
2026-04-19 04:13 9.18703 -74.19124 34270 ft 460 kts 168°
2026-04-19 04:14 9.15610 -74.18296 34561 ft 458 kts 168°
2026-04-19 04:14 9.12534 -74.17474 34850 ft 457 kts 168°
2026-04-19 04:14 9.06403 -74.15834 34929 ft 453 kts 168°
2026-04-19 04:15 9.00312 -74.14206 34927 ft 452 kts 168°
2026-04-19 04:15 8.94247 -74.12585 34925 ft 452 kts 168°
2026-04-19 04:16 8.88164 -74.10960 34924 ft 451 kts 168°
2026-04-19 04:16 8.82083 -74.09336 34928 ft 451 kts 168°
2026-04-19 04:17 8.76041 -74.07723 34924 ft 451 kts 168°
2026-04-19 04:17 8.69972 -74.06103 34929 ft 451 kts 168°
2026-04-19 04:18 8.63901 -74.04484 34931 ft 451 kts 168°
2026-04-19 04:18 8.57839 -74.02867 34935 ft 450 kts 168°
2026-04-19 04:19 8.51772 -74.01250 34938 ft 450 kts 168°
2026-04-19 04:19 8.45749 -73.99645 34941 ft 450 kts 168°
2026-04-19 04:20 8.39673 -73.98026 34941 ft 450 kts 168°
2026-04-19 04:20 8.33637 -73.96418 34945 ft 450 kts 168°
2026-04-19 04:21 8.27577 -73.94805 34943 ft 451 kts 168°
2026-04-19 04:21 8.21511 -73.93190 34941 ft 451 kts 168°
2026-04-19 04:22 8.15441 -73.91574 34945 ft 451 kts 168°
2026-04-19 04:22 8.09375 -73.89961 34936 ft 451 kts 168°
2026-04-19 04:23 8.03267 -73.88582 34931 ft 446 kts 179°
2026-04-19 04:23 7.97062 -73.88094 34932 ft 448 kts 178°
2026-04-19 04:24 7.90855 -73.87592 34932 ft 448 kts 178°
2026-04-19 04:24 7.84668 -73.87097 34936 ft 448 kts 178°
2026-04-19 04:25 7.78444 -73.86598 34932 ft 448 kts 178°
2026-04-19 04:25 7.73277 -73.86184 34938 ft 448 kts 178°
2026-04-19 04:26 7.67060 -73.85686 34943 ft 448 kts 178°
2026-04-19 04:26 7.60837 -73.85188 34938 ft 448 kts 178°
2026-04-19 04:27 7.54605 -73.84690 34937 ft 448 kts 178°
2026-04-19 04:27 7.48431 -73.84196 34943 ft 448 kts 178°
2026-04-19 04:28 7.42205 -73.83698 34944 ft 448 kts 178°
2026-04-19 04:28 7.35983 -73.83201 34950 ft 448 kts 178°
2026-04-19 04:29 7.29769 -73.82704 34936 ft 448 kts 178°
2026-04-19 04:29 7.23563 -73.82208 34926 ft 448 kts 178°
2026-04-19 04:30 7.17351 -73.81713 34923 ft 448 kts 178°
2026-04-19 04:30 7.11181 -73.81220 34911 ft 448 kts 177°
2026-04-19 04:31 7.04974 -73.80724 34913 ft 447 kts 178°
2026-04-19 04:31 7.01881 -73.80797 34895 ft 443 kts 191°
2026-04-19 04:31 6.98857 -73.81365 34909 ft 444 kts 191°
2026-04-19 04:32 6.92774 -73.82453 34908 ft 444 kts 192°
2026-04-19 04:32 6.86700 -73.83584 34924 ft 444 kts 192°
2026-04-19 04:33 6.80622 -73.84722 34938 ft 444 kts 192°
2026-04-19 04:33 6.74532 -73.85862 34960 ft 444 kts 192°
2026-04-19 04:34 6.68446 -73.87002 34985 ft 445 kts 192°
2026-04-19 04:34 6.62351 -73.88143 34990 ft 445 kts 192°
2026-04-19 04:35 6.56267 -73.89281 35012 ft 445 kts 192°
2026-04-19 04:35 6.50185 -73.90418 35019 ft 445 kts 192°
2026-04-19 04:36 6.44135 -73.91550 35025 ft 445 kts 192°
2026-04-19 04:36 6.38044 -73.92689 35038 ft 445 kts 192°
2026-04-19 04:37 6.31945 -73.93829 35046 ft 446 kts 192°
2026-04-19 04:37 6.25849 -73.94968 35062 ft 446 kts 192°
2026-04-19 04:38 6.22838 -73.95531 34932 ft 433 kts 192°
2026-04-19 04:38 6.19911 -73.96077 34730 ft 423 kts 192°
2026-04-19 04:38 6.17030 -73.96616 34297 ft 420 kts 192°
2026-04-19 04:38 6.14158 -73.97152 33725 ft 420 kts 192°
2026-04-19 04:39 6.11289 -73.97688 33163 ft 419 kts 192°
2026-04-19 04:39 6.08433 -73.98221 32679 ft 416 kts 192°
2026-04-19 04:39 6.05596 -73.98751 32191 ft 414 kts 192°
2026-04-19 04:39 6.02774 -73.99278 31716 ft 412 kts 192°
2026-04-19 04:40 5.99961 -73.99812 31180 ft 411 kts 192°
2026-04-19 04:40 5.97153 -74.00345 30706 ft 410 kts 192°
2026-04-19 04:40 5.94360 -74.00875 30269 ft 407 kts 192°
2026-04-19 04:40 5.91583 -74.01402 29757 ft 406 kts 192°
2026-04-19 04:41 5.88811 -74.01928 29247 ft 404 kts 192°
2026-04-19 04:41 5.86057 -74.02450 28787 ft 401 kts 192°
2026-04-19 04:41 5.83322 -74.02969 28348 ft 399 kts 192°
2026-04-19 04:41 5.80607 -74.03484 27906 ft 396 kts 192°
2026-04-19 04:42 5.77940 -74.03990 27480 ft 394 kts 192°
2026-04-19 04:42 5.75261 -74.04498 27057 ft 391 kts 193°
2026-04-19 04:42 5.72558 -74.05010 26625 ft 389 kts 193°
2026-04-19 04:42 5.69936 -74.05507 26218 ft 388 kts 193°
2026-04-19 04:43 5.67289 -74.06009 25799 ft 386 kts 193°
2026-04-19 04:43 5.64658 -74.06508 25405 ft 384 kts 193°
2026-04-19 04:43 5.62034 -74.07006 25001 ft 383 kts 193°
2026-04-19 04:43 5.59419 -74.07501 24604 ft 382 kts 193°
2026-04-19 04:44 5.56808 -74.07996 24203 ft 381 kts 193°
2026-04-19 04:44 5.54212 -74.08488 23813 ft 380 kts 193°
2026-04-19 04:44 5.51614 -74.08965 23462 ft 375 kts 190°
2026-04-19 04:44 5.49064 -74.09431 23090 ft 372 kts 190°
2026-04-19 04:45 5.46516 -74.09917 22594 ft 371 kts 193°
2026-04-19 04:45 5.44026 -74.10426 22203 ft 367 kts 197°
2026-04-19 04:45 5.41630 -74.11310 21582 ft 368 kts 210°
2026-04-19 04:45 5.39427 -74.12658 20884 ft 374 kts 213°
2026-04-19 04:46 5.37174 -74.14034 20243 ft 380 kts 213°
2026-04-19 04:46 5.34908 -74.15405 19819 ft 377 kts 213°
2026-04-19 04:46 5.32701 -74.16734 19457 ft 364 kts 213°
2026-04-19 04:46 5.30585 -74.18006 19103 ft 354 kts 213°
2026-04-19 04:47 5.28505 -74.19254 18745 ft 344 kts 213°
2026-04-19 04:47 5.26490 -74.20464 18526 ft 330 kts 213°
2026-04-19 04:47 5.24525 -74.21643 18012 ft 328 kts 213°
2026-04-19 04:47 5.22582 -74.22808 17525 ft 324 kts 213°
2026-04-19 04:48 5.20667 -74.23957 17140 ft 318 kts 213°
2026-04-19 04:48 5.18764 -74.25098 16805 ft 317 kts 213°
2026-04-19 04:48 5.16870 -74.26233 16467 ft 316 kts 213°
2026-04-19 04:48 5.14983 -74.27365 16140 ft 315 kts 213°
2026-04-19 04:49 5.13105 -74.28490 15814 ft 313 kts 213°
2026-04-19 04:49 5.11239 -74.29609 15489 ft 312 kts 213°
2026-04-19 04:49 5.09407 -74.30707 15172 ft 310 kts 213°
2026-04-19 04:49 5.07556 -74.31816 14855 ft 309 kts 213°
2026-04-19 04:50 5.05708 -74.32910 14528 ft 308 kts 210°
2026-04-19 04:50 5.03694 -74.33635 14126 ft 309 kts 194°
2026-04-19 04:50 5.01609 -74.34123 13744 ft 307 kts 196°
2026-04-19 04:50 4.99537 -74.34648 13394 ft 307 kts 196°
2026-04-19 04:51 4.97487 -74.35179 13067 ft 306 kts 197°
2026-04-19 04:51 4.95431 -74.35719 12750 ft 305 kts 197°
2026-04-19 04:51 4.93381 -74.36262 12432 ft 302 kts 197°
2026-04-19 04:51 4.91378 -74.36795 12164 ft 292 kts 197°
2026-04-19 04:52 4.89433 -74.37236 11974 ft 280 kts 185°
2026-04-19 04:52 4.87599 -74.37004 11952 ft 263 kts 160°
2026-04-19 04:52 4.86088 -74.36105 11899 ft 245 kts 139°
2026-04-19 04:52 4.84837 -74.34974 12006 ft 242 kts 134°
2026-04-19 04:53 4.83719 -74.33710 12019 ft 240 kts 128°
2026-04-19 04:53 4.82693 -74.32380 11964 ft 240 kts 126°
2026-04-19 04:53 4.81698 -74.31052 11727 ft 237 kts 126°
2026-04-19 04:53 4.80725 -74.29757 11488 ft 227 kts 126°
2026-04-19 04:54 4.79791 -74.28516 11199 ft 219 kts 126°
2026-04-19 04:54 4.78891 -74.27321 10930 ft 210 kts 126°
2026-04-19 04:54 4.78029 -74.26176 10673 ft 202 kts 126°
2026-04-19 04:54 4.77200 -74.25075 10469 ft 192 kts 125°
2026-04-19 04:55 4.76410 -74.24027 10260 ft 186 kts 125°
2026-04-19 04:55 4.75640 -74.23003 9993 ft 183 kts 126°
2026-04-19 04:55 4.74873 -74.21985 9742 ft 183 kts 125°
2026-04-19 04:55 4.74112 -74.20976 9491 ft 181 kts 126°
2026-04-19 04:56 4.73358 -74.19973 9218 ft 180 kts 126°
2026-04-19 04:56 4.72602 -74.18970 8948 ft 180 kts 126°
2026-04-19 04:56 4.71848 -74.17970 8659 ft 179 kts 126°
2026-04-19 04:56 4.71094 -74.16979 8422 ft 179 kts 126°
2026-04-19 04:57 4.70419 -74.16082 8367 ft 130 kts 127°
2026-04-19 04:57 4.70006 -74.15535 8366 ft 67 kts 127°
2026-04-19 04:57 4.69839 -74.15317 8368 ft 26 kts 128°
2026-04-19 04:57 4.69747 -74.15161 8368 ft 26 kts 109°
2026-04-19 04:58 4.69708 -74.14987 8367 ft 24 kts 99°
2026-04-19 04:58 4.69718 -74.14853 8368 ft 19 kts 62°
2026-04-19 04:58 4.69811 -74.14765 8368 ft 18 kts 37°
2026-04-19 04:58 4.69908 -74.14695 8368 ft 17 kts 38°
2026-04-19 04:59 4.69983 -74.14635 8368 ft 14 kts 38°
2026-04-19 04:59 4.70038 -74.14579 8369 ft 7 kts 91°
2026-04-19 04:59 4.70014 -74.14537 8369 ft 7 kts 127°
2026-04-19 04:59 4.69983 -74.14496 8368 ft 7 kts 127°
2026-04-19 05:00 4.69953 -74.14456 8368 ft 7 kts 127°
2026-04-19 05:00 4.69925 -74.14418 8369 ft 7 kts 127°
2026-04-19 05:00 4.69896 -74.14383 8368 ft 6 kts 148°
2026-04-19 05:00 4.69886 -74.14384 8368 ft 1 kts 206°
2026-04-19 05:01 4.69876 -74.14396 8368 ft 3 kts 232°
2026-04-19 05:01 4.69865 -74.14410 8368 ft 1 kts 229°
2026-04-19 05:01 4.69860 -74.14415 8368 ft 1 kts 228°
2026-04-19 05:01 4.69859 -74.14416 8368 ft 0 kts 228°